CW5456 Hansville WA US current weather conditions

sailwx.info

Wind from 198 at 6 knots gusting 19

Air temperature 15.0° C
Dewpoint 12.7° C

Last reported at 2014-Oct-21 20:25 UTC.
Time now 2014-Oct-21 21:34 UTC

Location: N 47°55' W 122°35'.
View on Google Maps.

See reports from other nearby stations

  
Tides and Currents Weather Stations Pressure Air Temp Water Temp Dewpoint Dewpoint Depression Visibility Wind Speed Wind Dir Waves Ship Positions
date/time (UTC)wind fromknots sea level pressurealtimeterstation pressurevisibilityair tempwater tempwave heightnotes
2014-Oct-21 20:25 198 6 gusting 19 15.0
2014-Oct-21 20:15 209 14 gusting 18 14.4
2014-Oct-21 19:55 205 15 gusting 19 13.9
2014-Oct-21 19:35 187 5 gusting 19 14.4
2014-Oct-21 19:30 192 6 gusting 19 14.4
2014-Oct-21 19:15 143 6 gusting 14 14.4
2014-Oct-21 19:05 163 9 gusting 13 14.4
2014-Oct-21 18:55 181 6 gusting 19 14.4
2014-Oct-21 18:50 214 6 gusting 19 14.4
2014-Oct-21 18:45 169 3 gusting 18 13.9
2014-Oct-21 18:35 140 11 gusting 17 13.9
2014-Oct-21 17:55 190 6 gusting 22 13.9
2014-Oct-21 17:50 174 6 gusting 22 13.9
2014-Oct-21 17:45 221 9 gusting 17 13.9
2014-Oct-21 17:40 166 7 gusting 20 13.9
2014-Oct-21 17:35 188 7 gusting 20 13.9
2014-Oct-21 17:25 229 10 gusting 18 13.9
2014-Oct-21 17:05 167 5 gusting 12 13.3
2014-Oct-21 16:45 213 3 gusting 13 13.3
2014-Oct-21 16:15 180 0 gusting 11 13.3
2014-Oct-21 16:10 152 6 gusting 11 13.3
2014-Oct-21 16:05 125 1 gusting 11 13.3
2014-Oct-21 16:00 171 7 gusting 11 13.3
2014-Oct-21 15:45 171 2 gusting 7 13.3
2014-Oct-21 15:40 102 0 gusting 15 13.3
2014-Oct-21 15:35 142 6 gusting 15 13.3
2014-Oct-21 15:15 237 3 gusting 8 12.8
2014-Oct-21 15:00 109 3 gusting 8 12.8
2014-Oct-21 14:35 150 6 gusting 12 12.8
2014-Oct-21 14:31 206 6 gusting 14 12.8
2014-Oct-21 14:25 234 3 gusting 14 12.8
2014-Oct-21 14:15 179 11 gusting 18 12.8
2014-Oct-21 14:05 218 5 gusting 12 12.8
2014-Oct-21 13:55 168 3 gusting 15 12.8
2014-Oct-21 13:35 226 3 gusting 21 12.8
2014-Oct-21 13:25 197 6 gusting 18 12.8
2014-Oct-21 13:15 173 3 gusting 11 12.8
2014-Oct-21 12:55 194 8 gusting 13 12.8
2014-Oct-21 12:45 159 3 gusting 14 12.8
2014-Oct-21 12:40 190 7 gusting 14 12.8
2014-Oct-21 12:25 200 12.8
2014-Oct-21 12:20 175 6 gusting 11 12.8
2014-Oct-21 12:15 237 2 gusting 12 12.8
2014-Oct-21 12:00 213 1 gusting 10 12.8
2014-Oct-21 11:55 164 6 gusting 11 12.8
2014-Oct-21 11:50 176 5 gusting 12 12.8
2014-Oct-21 11:45 123 6 gusting 12 12.8
2014-Oct-21 11:35 165 8 gusting 8 12.8
2014-Oct-21 11:30 128 5 gusting 13 12.8
2014-Oct-21 11:15 189 7 gusting 10 12.8
2014-Oct-21 11:10 160 6 gusting 13 12.8
2014-Oct-21 10:55 207 6 gusting 11 13.3
2014-Oct-21 10:40 171 6 gusting 17 13.3
2014-Oct-21 10:25 079 1 gusting 11 13.3
2014-Oct-21 10:20 175 7 gusting 20 13.3
2014-Oct-21 10:10 134 5 gusting 11 13.3
2014-Oct-21 10:05 175 10 gusting 11 13.3
2014-Oct-21 10:00 253 2 gusting 11 13.3
2014-Oct-21 09:55 095 13.3
2014-Oct-21 09:50 054 3 gusting 15 13.3
2014-Oct-21 09:45 197 5 gusting 12 13.3
2014-Oct-21 09:30 192 0 gusting 10 13.3
2014-Oct-21 09:25 163 2 gusting 14 13.3
2014-Oct-21 09:20 157 3 gusting 14 13.3
2014-Oct-21 09:05 167 5 gusting 14 12.8
2014-Oct-21 09:00 188 0 gusting 14 12.8
2014-Oct-21 08:55 165 1 gusting 8 12.8
2014-Oct-21 08:50 195 5 gusting 8 12.8
2014-Oct-21 08:40 242 0 gusting 8 12.8
2014-Oct-21 08:35 250 2 gusting 10 12.8
2014-Oct-21 08:10 155 6 gusting 8 12.8
2014-Oct-21 08:05 203 6 gusting 8 12.8
2014-Oct-21 07:55 179 3 gusting 7 12.8
2014-Oct-21 07:50 307 0 gusting 8 12.8
2014-Oct-21 07:30 203 3 gusting 11 12.8
2014-Oct-21 07:25 227 9 gusting 14 12.8
2014-Oct-21 07:15 090 1 gusting 14 13.3
2014-Oct-21 07:10 099 5 gusting 18 13.3
2014-Oct-21 07:00 183 2 gusting 17 13.3
2014-Oct-21 06:55 210 2 gusting 16 13.3
2014-Oct-21 06:40 168 5 gusting 16 13.3
2014-Oct-21 06:35 136 3 gusting 16 13.3
2014-Oct-21 06:15 152 3 gusting 12 13.3
2014-Oct-21 06:10 125 3 gusting 12 13.3
2014-Oct-21 05:50 177 5 gusting 6 13.3
2014-Oct-21 05:35 138 7 gusting 11 13.3
2014-Oct-21 05:30 064 1 gusting 11 13.3
2014-Oct-21 05:05 229 8 gusting 12 13.3
2014-Oct-21 04:35 178 6 gusting 10 13.3
2014-Oct-21 04:20 164 3 gusting 11 13.3
2014-Oct-21 04:10 234 1 gusting 15 13.3
2014-Oct-21 04:00 094 2 gusting 15 13.3
2014-Oct-21 03:55 110 3 gusting 15 13.3
2014-Oct-21 03:50 199 6 gusting 13 13.3
2014-Oct-21 03:45 091 10 gusting 17 13.3
2014-Oct-21 03:30 172 2 gusting 25 13.3
2014-Oct-21 02:50 171 3 gusting 10 13.3
2014-Oct-21 02:45 187 2 gusting 13 13.3
2014-Oct-21 02:35 243 6 gusting 11 13.3
2014-Oct-21 02:25 166 13.3
2014-Oct-21 02:20 143 13.3
2014-Oct-21 02:15 155 1 gusting 11 13.3
2014-Oct-21 02:10 190 3 gusting 11 13.3
2014-Oct-21 02:05 155 6 gusting 11 13.3
2014-Oct-21 01:55 183 6 gusting 9 13.9
2014-Oct-21 01:35 184 6 gusting 14 13.9
2014-Oct-21 01:20 199 0 gusting 13 14.4
2014-Oct-21 01:05 169 1 gusting 10 15.0
2014-Oct-21 00:55 133 2 gusting 9 15.6
2014-Oct-21 00:30 205 2 gusting 7 16.1
2014-Oct-21 00:20 153 16.1
2014-Oct-21 00:15 138 6 gusting 9 16.1
2014-Oct-21 00:05 155 3 gusting 7 16.7
2014-Oct-21 00:00 169 7 gusting 9 16.7
2014-Oct-20 23:55 100 0 gusting 11 16.7
2014-Oct-20 23:45 198 2 gusting 10 17.2
2014-Oct-20 23:40 134 17.2
2014-Oct-20 23:35 246 1 gusting 13 17.2
2014-Oct-20 23:30 211 6 gusting 13 17.2
2014-Oct-20 23:15 123 6 gusting 11 17.2
2014-Oct-20 23:10 148 6 gusting 13 17.2
2014-Oct-20 23:05 183 10 gusting 13 17.2
2014-Oct-20 23:00 130 2 gusting 14 17.2
2014-Oct-20 22:55 171 5 gusting 15 17.2
2014-Oct-20 22:50 218 9 gusting 15 17.8
2014-Oct-20 22:30 184 1 gusting 18 17.8
2014-Oct-20 22:25 163 1 gusting 18 17.8
2014-Oct-20 22:15 180 12 gusting 15 17.8
2014-Oct-20 22:00 143 2 gusting 16 18.3
2014-Oct-20 21:55 136 18.3
2014-Oct-20 21:45 187 8 gusting 16 17.8
2014-Oct-20 21:40 197 6 gusting 18 17.8
2014-Oct-20 21:35 182 10 gusting 18 17.8
2014-Oct-20 21:25 198 5 gusting 11 17.8
2014-Oct-20 21:20 189 9 gusting 13 17.2
2014-Oct-20 21:10 156 0 gusting 13 17.8
2014-Oct-20 21:05 229 0 gusting 17 17.8
2014-Oct-20 21:00 202 2 gusting 17 17.8
2014-Oct-20 20:50 205 6 gusting 13 17.8
2014-Oct-20 20:45 190 3 gusting 13 17.8
2014-Oct-20 20:40 099 6 gusting 13 17.8
2014-Oct-20 20:35 217 7 gusting 16 18.3
2014-Oct-20 20:10 141 3 gusting 16 17.8
2014-Oct-20 20:05 214 6 gusting 16 17.2
2014-Oct-20 19:45 203 6 gusting 15 17.8
2014-Oct-20 19:40 102 3 gusting 15 17.8
2014-Oct-20 19:35 163 5 gusting 14 17.8
2014-Oct-20 19:20 167 12 gusting 17 17.2
2014-Oct-20 19:05 202 6 gusting 15 16.7
2014-Oct-20 18:40 164 6 gusting 13 16.1
2014-Oct-20 18:35 180 8 gusting 14 16.1
2014-Oct-20 18:30 207 6 gusting 18 16.1
2014-Oct-20 18:15 199 5 gusting 12 15.6
2014-Oct-20 18:05 194 6 gusting 9 15.6
2014-Oct-20 17:40 206 5 gusting 11 15.6
2014-Oct-20 17:25 173 5 gusting 10 15.6
2014-Oct-20 16:55 193 6 gusting 13 15.6
2014-Oct-20 16:45 148 1 gusting 9 15.0
2014-Oct-20 16:40 168 3 gusting 11 15.0
2014-Oct-20 16:30 186 0 gusting 14 15.0
2014-Oct-20 16:25 175 2 gusting 17 15.0
2014-Oct-20 16:20 150 6 gusting 17 15.0
2014-Oct-20 16:15 211 9 gusting 16 15.0
2014-Oct-20 15:55 220 6 gusting 13 14.4
2014-Oct-20 15:50 164 7 gusting 10 14.4
2014-Oct-20 15:45 156 1 gusting 15 14.4
2014-Oct-20 15:40 163 1 gusting 15 14.4
2014-Oct-20 15:30 119 3 gusting 13 14.4
2014-Oct-20 15:20 191 6 gusting 15 14.4
2014-Oct-20 15:15 179 7 gusting 17 14.4
2014-Oct-20 15:10 186 11 gusting 17 14.4
2014-Oct-20 14:50 112 14.4
2014-Oct-20 14:30 166 5 gusting 11 14.4
2014-Oct-20 14:25 185 7 gusting 10 14.4
2014-Oct-20 14:20 188 3 gusting 10 14.4
2014-Oct-20 14:15 182 6 gusting 13 14.4
2014-Oct-20 14:10 173 2 gusting 13 14.4
2014-Oct-20 13:50 188 5 gusting 16 15.0
2014-Oct-20 13:45 155 8 gusting 16 15.0
2014-Oct-20 13:40 214 3 gusting 9 15.0
2014-Oct-20 13:30 167 5 gusting 8 15.0
2014-Oct-20 13:25 126 6 gusting 8 15.0
2014-Oct-20 13:20 165 6 gusting 8 15.0
2014-Oct-20 13:15 190 1 gusting 8 15.0
2014-Oct-20 12:55 179 0 gusting 10 15.0
2014-Oct-20 12:50 206 7 gusting 9 15.0
2014-Oct-20 12:40 128 5 gusting 7 15.0
2014-Oct-20 12:35 214 1 gusting 10 15.0
2014-Oct-20 12:15 176 5 gusting 11 15.0
2014-Oct-20 11:55 150 3 gusting 9 15.0
2014-Oct-20 11:50 182 7 gusting 9 15.0
2014-Oct-20 11:45 192 6 gusting 6 15.0
2014-Oct-20 11:35 169 1 gusting 12 15.0
2014-Oct-20 11:30 185 15.0
2014-Oct-20 11:20 218 5 gusting 6 15.0
2014-Oct-20 10:55 163 3 gusting 6 15.0
2014-Oct-20 10:45 165 1 gusting 8 15.0
2014-Oct-20 10:30 150 15.0
2014-Oct-20 10:20 171 2 gusting 6 15.0
2014-Oct-20 10:10 191 5 gusting 6 15.0
2014-Oct-20 10:05 149 6 gusting 7 15.0
2014-Oct-20 10:00 207 1 gusting 7 15.0
2014-Oct-20 09:50 153 15.0
2014-Oct-20 09:45 196 6 gusting 10 15.0
2014-Oct-20 09:40 187 2 gusting 7 15.0
2014-Oct-20 09:25 117 15.0
2014-Oct-20 09:00 123 5 gusting 6 15.6
2014-Oct-20 08:55 163 15.6
2014-Oct-20 08:50 149 15.6
2014-Oct-20 08:45 179 15.6
2014-Oct-20 08:35 250 15.6
2014-Oct-20 08:25 145 0 gusting 6 16.1
2014-Oct-20 08:20 098 1 gusting 6 16.1
2014-Oct-20 08:10 118 1 gusting 6 16.1
2014-Oct-20 08:05 128 16.1
2014-Oct-20 07:55 166 2 gusting 6 16.1
2014-Oct-20 07:45 164 6 gusting 8 16.1
2014-Oct-20 07:30 126 16.7
2014-Oct-20 07:25 205 0 gusting 7 16.7
2014-Oct-20 07:10 179 6 gusting 10 16.1
2014-Oct-20 07:00 169 6 gusting 6 16.1
2014-Oct-20 06:40 137 3 gusting 8 16.1
2014-Oct-20 06:25 322 16.1
2014-Oct-20 06:05 103 3 gusting 10 16.7
2014-Oct-20 05:40 206 5 gusting 10 17.2
2014-Oct-20 05:15 196 3 gusting 9 17.2
2014-Oct-20 05:05 213 6 gusting 7 17.2
2014-Oct-20 04:40 182 0 gusting 13 17.2
2014-Oct-20 04:15 164 6 gusting 10 17.2
2014-Oct-20 04:00 246 6 gusting 12 17.2
2014-Oct-20 03:55 159 7 gusting 12 17.2
2014-Oct-20 03:40 191 3 gusting 12 17.8
2014-Oct-20 03:35 198 6 gusting 12 17.8
2014-Oct-20 03:20 158 1 gusting 9 17.8
2014-Oct-20 03:15 162 5 gusting 9 17.8
2014-Oct-20 03:05 150 2 gusting 10 17.8
2014-Oct-20 03:00 195 3 gusting 10 17.8
2014-Oct-20 02:55 216 6 gusting 10 17.8
2014-Oct-20 02:45 318 0 gusting 12 18.3
2014-Oct-20 02:20 183 5 gusting 12 18.3
2014-Oct-20 02:15 166 18.3
2014-Oct-20 02:00 159 3 gusting 8 17.8
2014-Oct-20 01:40 150 0 gusting 6 17.8
2014-Oct-20 01:35 152 18.3
2014-Oct-20 01:25 175 3 gusting 6 18.3
2014-Oct-20 01:20 139 3 gusting 6 18.3
2014-Oct-20 01:10 185 0 gusting 7 18.9
2014-Oct-20 01:05 152 0 gusting 9 18.9
2014-Oct-20 01:00 162 0 gusting 9 18.9
2014-Oct-20 00:55 190 19.4
2014-Oct-20 00:50 207 5 gusting 9 19.4
2014-Oct-20 00:40 128 1 gusting 8 19.4
2014-Oct-20 00:15 167 6 gusting 10 20.0
2014-Oct-20 00:10 224 1 gusting 10 20.0
2014-Oct-20 00:05 167 2 gusting 9 20.0
2014-Oct-19 23:55 226 0 gusting 6 20.0
2014-Oct-19 23:45 136 3 gusting 6 20.6
2014-Oct-19 23:40 208 1 gusting 6 20.6
2014-Oct-19 23:20 210 2 gusting 11 21.1
2014-Oct-19 23:15 203 6 gusting 12 21.1
2014-Oct-19 23:10 169 20.6
2014-Oct-19 22:50 207 16 gusting 16 20.0
2014-Oct-19 22:40 160 7 gusting 15 20.0
2014-Oct-19 22:20 263 1 gusting 11 20.6
2014-Oct-19 22:15 236 20.6
2014-Oct-19 22:00 244 1 gusting 8 21.1
2014-Oct-19 21:50 238 1 gusting 10 21.7
2014-Oct-19 21:35 196 3 gusting 13 22.2
2014-Oct-19 21:30 037 0 gusting 17 22.2
2014-Oct-19 21:25 242 3 gusting 17 21.7